EZY39WY EGKK-LEVC

Flight info

Callsign EZY39WY
Flight time N/A
Altitude 33000
Route SFD Y47 BENBO UY47 DRAKE L151 SITET UN859 SOPIL DCT BALAN DCT LMG DCT PIMQO DCT AGN DCT ANETO DCT POSSY DCT ROCME DCT SEROX DCT CASPE DCT MLA DCT CRETA DCT RIMES DCT SAURA
Aircraft A320/M-SDE2E3FGHIJ1RWXYZ/LB1

Departure

Time 2026-05-04 14:58
Airport London Gatwick Airport (EGKK)

Arrival

Time N/A
Airport Valencia Airport (LEVC)
Time Latitude Longitude Altitude Speed Heading
2026-05-04 14:07 51.15637 -0.17848 209 ft 0 kts 167°
2026-05-04 14:41 51.15642 -0.17850 204 ft 4 kts 167°
2026-05-04 14:41 51.15669 -0.17859 207 ft 4 kts 167°
2026-05-04 14:41 51.15710 -0.17865 213 ft 4 kts 240°
2026-05-04 14:42 51.15718 -0.17821 213 ft 0 kts 257°
2026-05-04 14:46 51.15713 -0.17855 213 ft 8 kts 257°
2026-05-04 14:46 51.15695 -0.17988 204 ft 15 kts 258°
2026-05-04 14:46 51.15675 -0.18136 213 ft 14 kts 258°
2026-05-04 14:46 51.15652 -0.18302 206 ft 17 kts 257°
2026-05-04 14:47 51.15625 -0.18495 204 ft 16 kts 258°
2026-05-04 14:47 51.15600 -0.18683 208 ft 19 kts 258°
2026-05-04 14:47 51.15565 -0.18833 211 ft 13 kts 203°
2026-05-04 14:47 51.15470 -0.18800 209 ft 16 kts 168°
2026-05-04 14:48 51.15356 -0.18760 209 ft 13 kts 167°
2026-05-04 14:48 51.15264 -0.18728 214 ft 12 kts 167°
2026-05-04 14:48 51.15189 -0.18701 212 ft 9 kts 167°
2026-05-04 14:48 51.15137 -0.18702 210 ft 6 kts 232°
2026-05-04 14:49 51.15124 -0.18780 208 ft 12 kts 259°
2026-05-04 14:49 51.15098 -0.18965 215 ft 19 kts 257°
2026-05-04 14:49 51.15068 -0.19188 206 ft 22 kts 258°
2026-05-04 14:49 51.15033 -0.19441 206 ft 25 kts 258°
2026-05-04 14:50 51.14994 -0.19718 204 ft 25 kts 257°
2026-05-04 14:50 51.14954 -0.20012 213 ft 29 kts 258°
2026-05-04 14:50 51.14910 -0.20333 207 ft 28 kts 257°
2026-05-04 14:50 51.14868 -0.20635 212 ft 29 kts 258°
2026-05-04 14:51 51.14824 -0.20952 213 ft 27 kts 257°
2026-05-04 14:51 51.14793 -0.21149 214 ft 10 kts 243°
2026-05-04 14:51 51.14772 -0.21260 204 ft 11 kts 258°
2026-05-04 14:51 51.14761 -0.21344 204 ft 0 kts 257°
2026-05-04 14:52 51.14750 -0.21388 211 ft 7 kts 232°
2026-05-04 14:52 51.14711 -0.21402 208 ft 5 kts 169°
2026-05-04 14:52 51.14693 -0.21395 210 ft 0 kts 163°
2026-05-04 14:53 51.14683 -0.21386 213 ft 7 kts 149°
2026-05-04 14:53 51.14634 -0.21332 210 ft 10 kts 167°
2026-05-04 14:53 51.14619 -0.21327 204 ft 0 kts 167°
2026-05-04 14:55 51.14616 -0.21326 204 ft 4 kts 167°
2026-05-04 14:55 51.14560 -0.21296 204 ft 12 kts 149°
2026-05-04 14:55 51.14520 -0.21189 207 ft 11 kts 94°
2026-05-04 14:56 51.14528 -0.21121 208 ft 0 kts 78°
2026-05-04 14:57 51.14529 -0.21116 207 ft 4 kts 78°
2026-05-04 14:57 51.14575 -0.20772 207 ft 68 kts 77°
2026-05-04 14:57 51.14722 -0.19695 206 ft 128 kts 77°
2026-05-04 14:58 51.14940 -0.18070 373 ft 160 kts 77°
2026-05-04 14:58 51.15155 -0.16302 1044 ft 167 kts 79°
2026-05-04 14:58 51.15403 -0.14428 1569 ft 183 kts 78°
2026-05-04 14:58 51.15709 -0.12335 1895 ft 207 kts 76°
2026-05-04 14:59 51.16069 -0.09966 2281 ft 229 kts 77°
2026-05-04 14:59 51.16215 -0.07450 3140 ft 231 kts 101°
2026-05-04 14:59 51.13898 -0.03815 4234 ft 265 kts 165°
2026-05-04 15:00 51.12060 -0.03354 5093 ft 270 kts 175°
2026-05-04 15:00 51.10154 -0.03098 5858 ft 278 kts 175°
2026-05-04 15:00 51.08247 -0.02812 6877 ft 274 kts 175°
2026-05-04 15:01 51.04458 -0.01536 8494 ft 284 kts 165°
2026-05-04 15:01 51.02563 -0.00598 9339 ft 286 kts 162°
2026-05-04 15:01 51.00685 0.00411 10248 ft 284 kts 161°
2026-05-04 15:01 50.98800 0.01444 10942 ft 291 kts 162°
2026-05-04 15:02 50.96861 0.02531 11551 ft 300 kts 160°
2026-05-04 15:02 50.94886 0.03600 12365 ft 299 kts 163°
2026-05-04 15:02 50.92887 0.04520 13206 ft 299 kts 165°
2026-05-04 15:02 50.90874 0.05359 14010 ft 299 kts 167°
2026-05-04 15:03 50.88847 0.06152 14675 ft 302 kts 167°
2026-05-04 15:03 50.86785 0.06893 15303 ft 305 kts 168°
2026-05-04 15:03 50.84714 0.07703 15925 ft 309 kts 164°
2026-05-04 15:03 50.82650 0.08730 16574 ft 312 kts 162°
2026-05-04 15:04 50.80581 0.09833 17226 ft 315 kts 162°
2026-05-04 15:04 50.78497 0.10932 17888 ft 317 kts 163°
2026-05-04 15:04 50.76338 0.11633 18496 ft 319 kts 176°
2026-05-04 15:04 50.74088 0.11513 18752 ft 332 kts 190°
2026-05-04 15:05 50.71779 0.10689 18876 ft 349 kts 193°
2026-05-04 15:05 50.69374 0.09789 19125 ft 360 kts 193°
2026-05-04 15:05 50.66921 0.08881 19604 ft 364 kts 193°
2026-05-04 15:05 50.64449 0.07975 20147 ft 366 kts 193°
2026-05-04 15:06 50.61955 0.07069 20657 ft 369 kts 193°
2026-05-04 15:06 50.59447 0.06164 21186 ft 371 kts 193°
2026-05-04 15:06 50.56919 0.05256 21696 ft 373 kts 193°
2026-05-04 15:07 50.51836 0.03430 22746 ft 377 kts 193°
2026-05-04 15:07 50.49307 0.02526 23244 ft 378 kts 193°
2026-05-04 15:07 50.46700 0.01594 23718 ft 380 kts 193°
2026-05-04 15:07 50.44149 0.00678 24123 ft 382 kts 193°
2026-05-04 15:08 50.41549 -0.00258 24531 ft 384 kts 193°
2026-05-04 15:08 50.38937 -0.01201 24934 ft 386 kts 193°
2026-05-04 15:08 50.36323 -0.02140 25388 ft 386 kts 193°
2026-05-04 15:08 50.33700 -0.03077 25817 ft 386 kts 193°
2026-05-04 15:09 50.31076 -0.04010 26218 ft 387 kts 193°
2026-05-04 15:09 50.28439 -0.04947 26602 ft 389 kts 193°
2026-05-04 15:09 50.25793 -0.05885 26991 ft 391 kts 193°
2026-05-04 15:10 50.20359 -0.06262 27714 ft 397 kts 173°
2026-05-04 15:10 50.17664 -0.05252 28072 ft 401 kts 162°
2026-05-04 15:10 50.12512 -0.01721 28769 ft 406 kts 158°
2026-05-04 15:11 50.09900 -0.00021 29183 ft 407 kts 163°
2026-05-04 15:11 50.07171 0.01128 29403 ft 407 kts 168°
2026-05-04 15:11 50.04416 0.02193 29739 ft 409 kts 168°
2026-05-04 15:11 50.01650 0.03273 30061 ft 411 kts 168°
2026-05-04 15:12 49.98871 0.04364 30327 ft 412 kts 168°
2026-05-04 15:12 49.96086 0.05466 30575 ft 414 kts 167°
2026-05-04 15:12 49.93286 0.06579 30812 ft 416 kts 167°
2026-05-04 15:12 49.90472 0.07691 31051 ft 418 kts 167°
2026-05-04 15:13 49.87645 0.08804 31313 ft 419 kts 167°
2026-05-04 15:13 49.84820 0.09911 31658 ft 418 kts 167°
2026-05-04 15:13 49.82949 0.10640 31882 ft 418 kts 167°
2026-05-04 15:13 49.80133 0.11737 32219 ft 417 kts 167°
2026-05-04 15:14 49.77316 0.12831 32555 ft 417 kts 167°
2026-05-04 15:14 49.74505 0.13922 32870 ft 417 kts 167°
2026-05-04 15:14 49.71697 0.15019 32982 ft 413 kts 167°
2026-05-04 15:15 49.66238 0.17161 33001 ft 400 kts 167°
2026-05-04 15:15 49.60863 0.19326 33003 ft 399 kts 167°
2026-05-04 15:16 49.52813 0.22584 33002 ft 399 kts 167°
2026-05-04 15:17 49.44786 0.25810 33003 ft 397 kts 167°
2026-05-04 15:17 49.36776 0.29001 33000 ft 396 kts 167°
2026-05-04 15:18 49.31465 0.31108 32994 ft 396 kts 167°
2026-05-04 15:19 49.23482 0.34432 32993 ft 396 kts 166°
2026-05-04 15:19 49.15509 0.37834 32973 ft 396 kts 166°
2026-05-04 15:20 49.10200 0.40067 32973 ft 396 kts 166°